Weather History for Douglas, WY

Change the Weather History Date:

Tuesday, March 19, 2013

  Actual Average Record
Temperature  
Mean Temperature 29 °F 36 °F  
Max Temperature 43 °F 50 °F 72 °F (2004)
Min Temperature 15 °F 23 °F 2 °F (2002)
Degree Days  
Heating Degree Days 36 28  
Month to date heating degree days 535 597  
Since 1 July heating degree days 5566 5997  
Cooling Degree Days 0 0  
Month to date cooling degree days 0 0  
Year to date cooling degree days 0 0  
Moisture  
Dew Point 17 °F    
Average Humidity 54    
Maximum Humidity 88    
Minimum Humidity 20    
Precipitation  
Precipitation T in 0.03 in 0.08 in (2003)
Month to date precipitation 0.05 0.44  
Year to date precipitation 0.54 1.23  
Sea Level Pressure  
Sea Level Pressure 30.19 in    
Wind  
Wind Speed 13 mph (NW)    
Max Wind Speed 33 mph    
Max Gust Speed 43 mph    
Visibility 9 miles    
Events Snow    
T = Trace of Precipitation, MM = Missing Value Source: NWS Daily Summary

Daily Weather History Graph

Daily Weather History Graph

Search for Another Location

Airport:

Trip Planner

Search our weather history database for the weather conditions in past years. The results will help you decide how hot, cold, wet, or windy it might be!

Date:

Astronomy

Mar. 19, 2013 Rise Set
Actual Time 7:05 AM MDT 7:13 PM MDT
Civil Twilight 6:37 AM MDT 7:41 PM MDT
Nautical Twilight 6:04 AM MDT 8:14 PM MDT
Astronomical Twilight 5:31 AM MDT 8:48 PM MDT
Moon 11:50 AM MDT (3/19) 2:09 AM MDT (3/19)
Length of Visible Light 13h 03m
Length of Day
12h 07m
Waxing Crescent, 50% of the Moon is Illuminated
Mar 19
Waxing Crescent
Mar 27
Full
Apr 2
Last Quarter
Apr 10
New
Apr 18
First Quarter

Hourly Weather History & Observations

Time (MDT) Temp. Windchill Dew Point Humidity Pressure Visibility Wind Dir Wind Speed Gust Speed Precip Events Conditions
12:53 AM 30.0 °F 20.5 °F 17.1 °F 59% 29.97 in 10.0 mi West 11.5 mph - N/A   Overcast
1:53 AM 27.0 °F 15.6 °F 21.9 °F 81% 29.99 in 10.0 mi West 13.8 mph - N/A   Overcast
2:24 AM 26.6 °F 15.7 °F 23.0 °F 86% 29.96 in 2.0 mi West 12.7 mph - 0.00 in Snow Light Snow
2:40 AM 26.6 °F 16.8 °F 24.8 °F 93% 29.96 in 3.0 mi West 10.4 mph - 0.00 in Snow Light Snow
2:53 AM 27.0 °F 16.7 °F 23.0 °F 85% 30.04 in 6.0 mi WNW 11.5 mph - 0.00 in Snow Light Snow
3:53 AM 27.0 °F 15.2 °F 23.0 °F 85% 30.04 in 9.0 mi WNW 15.0 mph - 0.00 in   Overcast
4:53 AM 26.1 °F 18.4 °F 21.9 °F 84% 30.05 in 10.0 mi WNW 6.9 mph - N/A   Overcast
5:53 AM 23.0 °F 14.7 °F 19.0 °F 85% 30.10 in 10.0 mi NNW 6.9 mph - N/A   Partly Cloudy
6:53 AM 21.0 °F 14.6 °F 18.0 °F 88% 30.13 in 10.0 mi WNW 4.6 mph - N/A   Clear
7:53 AM 23.0 °F 13.9 °F 19.0 °F 85% 30.17 in 10.0 mi NNW 8.1 mph - N/A   Clear
8:53 AM 28.0 °F 19.3 °F 21.0 °F 75% 30.19 in 10.0 mi NW 9.2 mph - N/A   Clear
9:53 AM 33.1 °F 22.6 °F 19.9 °F 59% 30.20 in 10.0 mi West 16.1 mph 23.0 mph N/A   Clear
10:53 AM 35.1 °F 23.3 °F 19.0 °F 52% 30.22 in 10.0 mi WNW 23.0 mph 29.9 mph N/A   Partly Cloudy
11:53 AM 37.0 °F 25.9 °F 15.1 °F 41% 30.19 in 10.0 mi West 23.0 mph 31.1 mph N/A   Partly Cloudy
12:53 PM 37.9 °F 26.1 °F 5.0 °F 25% 30.19 in 10.0 mi WNW 27.6 mph 34.5 mph N/A   Mostly Cloudy
1:53 PM 41.0 °F 30.9 °F 6.1 °F 24% 30.19 in 10.0 mi NW 24.2 mph 35.7 mph N/A   Partly Cloudy
2:53 PM 41.0 °F 29.7 °F 3.0 °F 21% 30.19 in 10.0 mi NW 31.1 mph 38.0 mph N/A   Mostly Cloudy
3:26 PM 35.6 °F 23.4 °F 19.4 °F 52% 30.15 in 10.0 mi North 25.3 mph 34.5 mph N/A   Mostly Cloudy
3:53 PM 35.1 °F 23.5 °F 19.0 °F 52% 30.25 in 10.0 mi North 21.9 mph 26.5 mph N/A   Overcast
4:53 PM 36.0 °F 24.4 °F 19.0 °F 50% 30.26 in 10.0 mi North 23.0 mph 28.8 mph N/A   Partly Cloudy
5:53 PM 34.0 °F 23.0 °F 18.0 °F 52% 30.30 in 10.0 mi NNE 18.4 mph 25.3 mph N/A   Clear
6:53 PM 30.0 °F 21.7 °F 16.0 °F 56% 30.35 in 10.0 mi NNE 9.2 mph - N/A   Mostly Cloudy
7:53 PM 26.1 °F - 14.0 °F 60% 30.40 in 10.0 mi Calm Calm - N/A   Partly Cloudy
8:53 PM 23.0 °F - 12.9 °F 65% 30.40 in 10.0 mi Calm Calm - N/A   Partly Cloudy
9:53 PM 19.0 °F 13.9 °F 10.9 °F 71% 30.43 in 10.0 mi ESE 3.5 mph - N/A   Clear
10:53 PM 19.0 °F 13.9 °F 10.9 °F 71% 30.42 in 10.0 mi SSE 3.5 mph - N/A   Overcast
11:53 PM 15.1 °F 7.7 °F 9.0 °F 77% 30.41 in 10.0 mi ESE 4.6 mph - N/A   Clear